Regional Weather Roundup
Issued by NWS

Home | Current Version | Previous Version | Graphics & Text | Print | Product List | Glossary On
Versions: 1 2 3 4 5 6 7 8 9 10 11 12 13 14 15 16 17 18 19 20 21 22 23 24 25 26 27 28 29 30 31 32 33 34 35 36 37 38 39 40 41 42 43 44 45 46 47 48 49 50
000
ASUS43 KDMX 262003
RWRIA

WEATHER ROUNDUP FOR IOWA
NATIONAL WEATHER SERVICE DES MOINES IA
300 PM CDT THU MAY 26 2016

NOTE: "FAIR" INDICATES FEW OR NO CLOUDS BELOW 12,000 FEET WITH NO
SIGNIFICANT WEATHER AND/OR OBSTRUCTIONS TO VISIBILITY.

* - THESE STATIONS ARE NOT NWS STATIONS...THUS NOT UNDER NWS
QUALITY CONTROL.  THEY ALSO DO NOT REPORT WEATHER SUCH
AS PRECIPITATION OR FOG.

IAZ001>003-012>014-020>022-031>034-043>046-262100-
   NORTHWEST IOWA

CITY           SKY/WX    TMP DP  RH WIND       PRES   REMARKS
CARROLL *        N/A     81  59  47 NE9       29.81F HX  81
CHEROKEE *       N/A     77  59  53 CALM      29.85F
DENISON *      SUNNY     81  59  47 NE8       29.79F HX  81
LE MARS *        N/A     77  59  53 CALM      29.86F
ORANGE CITY *  SUNNY     75  55  50 SW3       29.88F
SHELDON *        N/A     75  55  50 E5        29.86F
SIOUX CITY       N/A     82  61  48 NE6       29.81F HX  83
SPENCER          N/A     76  53  44 VRB3      29.88F
STORM LAKE *   SUNNY     79  57  47 VRB5      29.86F HX  80
$$

IAZ055>058-069>071-079>083-090>094-262100-
   SOUTHWEST IOWA

CITY           SKY/WX    TMP DP  RH WIND       PRES   REMARKS
ATLANTIC *       N/A     81  63  54 SE6       29.78F HX  82
AUDUBON *        N/A     82  64  54 NE8       29.82F HX  84
CLARINDA *       N/A     73  66  78 MISG      29.82S
COUNCIL BLFS * MOSUNNY   81  64  57 NE9       29.75F HX  82
CRESTON *        N/A     75  68  78 SE10G17   29.82F
HARLAN  *        N/A     81  57  44 E9G16     29.82F HX  81
LAMONI           N/A     77  67  71 VRB3      29.83R
RED OAK *      PTSUNNY   79  68  69 SE9       29.76F HX  81
SHENANDOAH *   HVY RAIN  73  70  88 S13G20    29.81R VSB 1
$$

IAZ047>049-059>061-072>074-084-262100-
   CENTRAL IOWA

CITY           SKY/WX    TMP DP  RH WIND       PRES   REMARKS
AMES             N/A     82  61  48 VRB3      29.83F HX  83
ANKENY *         N/A     81  66  61 SE8       29.82F HX  83
BOONE *          N/A     81  63  54 E7        29.83F HX  82
CHARITON *       N/A     77  66  69 SE10      29.82F
DES MOINES     PTSUNNY   81  62  52 SE9       29.82F HX  82
GRINNELL*        N/A     77  64  65 SE7       29.87F
KNOXVILLE *      N/A     77  66  69 VRB7      29.83F
MARSHALLTOWN     N/A     81  60  48 NE3       29.84F HX  82
NEWTON *         N/A     79  66  65 SE5       29.85F HX  81
PERRY *          N/A     82  61  47 E5        29.83F HX  83
$$

IAZ004>006-015-016-023>025-035-036-262100-
   NORTH CENTRAL IOWA

CITY           SKY/WX    TMP DP  RH WIND       PRES   REMARKS
ALGONA *         N/A     79  55  44 S7        29.86F
CLARION *        N/A     79  61  53 CALM      29.85F HX  80
ESTHERVILLE      N/A     76  54  46 VRB6      29.88S
FORT DODGE *     N/A     79  59  50 CALM      29.85F HX  80
MASON CITY       N/A     78  61  55 W8        29.88F HX  80
FOREST CITY *  SUNNY     77  59  53 SW6       29.87F
WEBSTER CITY *   N/A     79  61  53 MISG      29.82F HX  80
IOWA FALLS *     N/A     81  57  44 CALM      29.88F HX  81
$$

IAZ007>011-017>019-026>030-037>042-050>054-066-262100-
   NORTHEAST IOWA

CITY           SKY/WX    TMP DP  RH WIND       PRES   REMARKS
CEDAR RAPIDS     N/A     79  64  60 W6        29.85F HX  81
CHARLES CITY * SUNNY     79  61  53 W12       29.88F HX  80
CLINTON *        N/A     82  66  58 W9        29.86F HX  84
DECORAH *        N/A     77  63  61 W12       29.87F
DUBUQUE          N/A     81  58  45 W10       29.88F HX  81
MONTICELLO *     N/A     82  59  44 SW7       29.86F HX  82
OELWEIN *        N/A     79  59  50 SW10      29.88F HX  80
WATERLOO         N/A     81  58  45 SW6       29.85F HX  81
$$

IAZ064-065-067-068-078-262100-
   EAST CENTRAL IOWA

CITY           SKY/WX    TMP DP  RH WIND       PRES   REMARKS
DAVENPORT        N/A     82  64  54 SW10      29.86F HX  83
IOWA CITY        N/A     82  62  50 S7        29.86F HX  83
MT. PLEASANT *   N/A     86  59  39 S8        29.85F HX  85
MUSCATINE *      N/A     86  63  45 SW8       29.85F HX  87
QUAD CITIES      N/A     86  64  47 W9        29.84F HX  87
$$

IAZ062-063-075>077-085>089-095>099-262100-
   SOUTHEAST IOWA

CITY           SKY/WX    TMP DP  RH WIND       PRES   REMARKS
BURLINGTON       N/A     82  65  56 SW8       29.86F HX  84
FAIRFIELD *      N/A    N/A N/A N/A MISG        N/A
FORT MADISON *   N/A     81  63  54 S3        29.87F HX  82
KEOKUK *         N/A     81  64  57 S6        29.86F HX  82
OSKALOOSA *      N/A     81  64  57 S3        29.87S HX  82
OTTUMWA          N/A     81  64  56 S5        29.85F HX  82
WASHINGTON *   SUNNY     84  77  79 S8G15     29.86F HX  94
$$

ABBREVIATIONS USED IN REMARKS
   TC - TEMPERATURES IN CELSIUS
  WCI - WIND CHILL INDEX
   HX - HEAT INDEX
  VSB - VISIBILITY
$$





USA.gov is the U.S. government's official web portal to all federal, state and local government web resources and services.